[[{"header":{"parameterUnit":"m.s-1","parameterCategory":1,"la1":30.2991,"la2":30.254,"lo1":-89.0895,"lo2":-89.0444,"dy":0.0017,"dx":0.0017,"nx":28,"ny":28,"refTime":"2024-05-27T09:00:00:Z","depth":0,"parameterNumber":2,"parameterNumberName":"U-component_of_WINDS"},"data":[0,0,0,0,0,0,0,0,0,0,0,0,0,0,0,0,0,0,0,0,0,0,0,0,0,0,0,0,0,0,0,0,0,0,0,0,0,0,0,0,0,0,0,0,0,0,0,0,0,0,0,0,0,0,0,0,0,0,3.276,3.2762,0,3.2948,3.295,3.2952,3.2919,3.2916,3.2912,3.2909,3.3106,3.3114,3.3122,0,0,0,0,0,0,0,0,0,0,0,0,0,3.2375,3.2382,3.276,3.2762,3.2765,3.2948,3.295,3.2953,3.2919,3.2915,3.2911,3.2908,3.3103,3.3113,3.3123,0,0,0,0,0,0,0,0,0,0,0,0,0,3.2551,3.2385,3.2759,3.277,3.2773,3.2947,3.295,3.2954,3.292,3.2915,3.291,3.2906,3.31,3.3112,3.3124,3.3302,0,0,3.3163,3.3168,0,0,0,0,0,0,0,0,3.2541,3.2565,3.2766,3.2769,3.2773,3.2905,3.2887,3.3071,3.2922,3.2864,3.2909,3.2903,3.3043,3.306,3.3107,3.3311,3.332,3.3164,3.3171,3.3177,3.318,0,0,0,0,0,0,0,3.2529,3.2557,3.2834,3.2769,3.2773,3.2766,3.2786,3.2922,3.298,3.2869,3.2867,3.2889,3.3044,3.3095,3.3111,3.3322,3.3164,3.3175,3.3182,3.3187,3.3682,3.3687,0,0,0,0,0,0,3.2513,3.2547,3.2828,3.284,3.2642,3.2777,3.2799,3.2868,3.2978,3.299,3.2894,3.2887,3.3076,3.3096,3.3118,3.3332,3.3177,3.3188,3.3196,3.3676,3.3683,3.3689,0,0,0,0,0,0,3.2505,3.2538,3.2821,3.2693,3.2728,3.2789,3.2867,3.2874,3.2924,3.2997,3.3007,3.2934,3.3073,3.31,3.3256,3.3339,3.3194,3.3206,3.367,3.3678,3.3686,3.3763,0,0,0,0,0,0,3.2494,3.2536,3.2603,3.2695,3.2735,3.2955,3.2872,3.2881,3.2945,3.2939,3.3037,3.3049,3.3071,3.3237,3.3268,3.3353,3.3215,3.3663,3.3674,3.3683,3.3753,3.3773,3.379,0,0,0,0,0,3.248,3.2618,3.2606,3.264,3.282,3.296,3.2983,3.3004,3.2952,3.3021,3.3067,3.3046,3.3325,3.3254,3.3288,3.3378,3.3657,3.367,3.3683,3.3745,3.3769,3.379,0,0,0,0,0,0,3.2535,3.263,3.2618,3.2789,3.2867,3.2954,3.3041,3.3029,3.3124,3.3114,3.3137,3.316,3.3318,3.3364,3.3283,3.3556,3.3484,3.3504,3.352,3.3543,3.3561,3.3546,3.3226,0,0,0,0,0,3.2567,3.2671,3.2749,3.2893,3.2932,3.298,3.3041,3.3051,3.3132,3.3165,3.3223,3.3304,3.341,3.3479,3.3581,3.376,3.3781,3.3839,3.3857,3.3872,3.3889,3.3987,3.4014,3.3731,3.3731,3.373,0,0,3.2634,3.2699,3.2764,3.2905,3.2966,3.3074,3.3007,3.3125,3.3206,3.3183,3.3333,3.3379,3.3471,3.3639,3.3716,3.3683,3.3972,3.3888,3.3899,3.3909,3.4003,3.403,3.4054,3.3739,3.3738,3.3736,0,0,3.2812,3.2871,3.2997,3.3059,3.3152,3.3183,3.3213,3.3303,3.3331,3.3482,3.3467,3.3565,3.3747,3.3813,3.387,3.4073,3.4057,3.4106,3.4201,3.4296,3.4319,3.4338,3.4411,3.4436,3.4122,3.4123,3.4123,0,3.2884,3.3045,3.3064,3.3183,3.3246,3.3229,3.3357,3.3417,3.3539,3.3583,3.3543,3.3771,3.3832,3.4015,3.4064,3.4112,3.4147,3.4094,3.4314,3.4334,3.4353,3.4422,3.4449,3.4128,3.4127,3.4127,3.4126,0,3.3129,3.3242,3.3332,3.3449,3.3522,3.3645,3.3683,3.3756,3.3759,3.3794,3.3949,3.4021,3.4136,3.4181,3.4186,3.4366,3.4341,3.4308,3.4236,3.4385,3.445,3.4476,3.4135,3.4133,3.4132,3.4131,0,0,3.3346,3.3471,3.3504,3.3556,3.3658,3.3745,3.3868,3.398,3.4041,3.4126,3.423,3.4384,3.4353,3.4418,3.4431,3.4515,3.467,3.4471,3.4473,3.4505,3.4873,3.4897,3.4927,3.466,3.4666,3.467,3.4865,0,3.3533,3.3748,3.3768,3.3961,3.4065,3.4051,3.4159,3.4233,3.427,3.4364,3.4405,3.4514,3.4465,3.4504,3.4587,3.4634,3.4744,3.462,3.4758,3.4763,3.4734,3.4961,3.4988,3.5168,3.489,3.4895,3.4898,0,3.3779,3.3869,3.4073,3.4159,3.4203,3.4299,3.4403,3.4493,3.4578,3.4599,3.4671,3.4673,3.48,3.4724,3.49,3.4815,3.4873,3.4905,3.4912,3.4926,3.4839,3.498,3.5226,3.5253,3.4938,3.4935,3.4932,0,3.3916,3.4089,3.4233,3.4278,3.4383,3.445,3.4497,3.4576,3.4642,3.4734,3.4777,3.4883,3.4941,3.5023,3.5053,3.4995,3.5228,3.5154,3.525,3.5249,3.5299,3.5295,3.5557,3.5337,3.5337,3.5336,3.5336,0,3.4122,3.4247,3.4296,3.4384,3.4524,3.4547,3.4685,3.4728,3.4799,3.4897,3.4892,3.4984,3.5018,3.5116,3.5141,3.5283,3.5309,3.533,3.5335,3.5331,3.5328,3.5368,3.5356,3.5344,3.5342,3.5341,3.5339,0,3.4298,3.4336,3.4492,3.4578,3.4602,3.4702,3.4776,3.4862,3.4897,3.502,3.5051,3.5107,3.5222,3.526,3.54,3.5416,3.5582,3.5576,3.5553,3.5553,3.5646,3.5637,3.5943,3.5984,3.5738,3.574,3.5742,0,3.4427,3.4522,3.4618,3.4682,3.4731,3.4835,3.4902,3.4929,3.4999,3.5102,3.5176,3.5289,3.5381,3.5566,3.562,3.5727,3.5724,3.5824,3.574,3.5732,3.5725,3.5718,3.5728,3.5839,3.5842,3.5844,3.5845,0,3.4651,3.4664,3.476,3.4863,3.4943,3.5025,3.5105,3.5158,3.5197,3.5276,3.5393,3.5464,3.5606,3.5719,3.5828,3.5878,3.5869,3.5871,3.5899,3.5895,3.5877,3.5887,3.5595,3.5864,3.5862,3.5861,3.586,3.5859,3.4807,3.4891,3.4971,3.5078,3.5141,3.5215,3.53,3.5346,3.5443,3.5559,3.557,3.5696,3.5778,3.5924,3.5979,3.6078,3.605,3.609,3.61,3.611,3.6117,3.5861,3.6098,3.6098,3.6097,3.6097,3.6097,0,3.5029,3.508,3.5179,3.529,3.5374,3.5357,3.5445,3.5517,3.5627,3.5704,3.5795,3.5929,3.6039,3.6101,3.6211,3.6279,3.6278,3.6307,3.6302,3.6314,3.6136,3.61,3.6306,3.6306,3.6306,3.6306,3.6306,3.6306,3.5155,3.5296,3.532,3.5492,3.5543,3.5665,3.5716,3.5786,3.5847,3.5997,3.6087,3.6127,3.6199,3.6314,3.6414,3.643,3.647,3.6503,3.6515,3.6348,3.6326,3.6306,3.6273,3.6511,3.6512,3.6685,3.6687,3.6688]},{"header":{"parameterUnit":"m.s-1","parameterCategory":1,"la1":30.2991,"la2":30.254,"lo1":-89.0895,"lo2":-89.0444,"dy":0.0017,"dx":0.0017,"nx":28,"ny":28,"refTime":"2024-05-27T09:00:00:Z","depth":0,"parameterNumber":3,"parameterNumberName":"V-component_of_WINDS"},"data":[0,0,0,0,0,0,0,0,0,0,0,0,0,0,0,0,0,0,0,0,0,0,0,0,0,0,0,0,0,0,0,0,0,0,0,0,0,0,0,0,0,0,0,0,0,0,0,0,0,0,0,0,0,0,0,0,0,0,4.1264,4.1266,0,4.1446,4.1448,4.145,4.1451,4.1448,4.1446,4.1444,4.1628,4.1635,4.1642,0,0,0,0,0,0,0,0,0,0,0,0,0,4.0912,4.0918,4.1264,4.1266,4.1268,4.1446,4.1449,4.1451,4.1451,4.1448,4.1446,4.1443,4.1626,4.1634,4.1643,0,0,0,0,0,0,0,0,0,0,0,0,0,4.1076,4.092,4.1263,4.129,4.1294,4.1446,4.1449,4.1452,4.1452,4.1448,4.1445,4.1441,4.1623,4.1633,4.1644,4.178,0,0,4.1676,4.1681,0,0,0,0,0,0,0,0,4.1067,4.1089,4.1284,4.1288,4.1293,4.1422,4.1392,4.1562,4.1453,4.1392,4.1444,4.144,4.1562,4.1578,4.162,4.1789,4.1797,4.1677,4.1684,4.1688,4.1691,0,0,0,0,0,0,0,4.1056,4.1081,4.1336,4.1286,4.1292,4.1292,4.1311,4.1424,4.1494,4.1397,4.1397,4.1419,4.1564,4.1609,4.1624,4.1799,4.1677,4.1686,4.1693,4.1697,4.2088,4.2092,0,0,0,0,0,0,4.1039,4.1072,4.133,4.1341,4.1169,4.1301,4.1323,4.1384,4.1493,4.1507,4.1422,4.1418,4.1593,4.1611,4.163,4.1797,4.1688,4.1698,4.1704,4.2084,4.2089,4.2093,0,0,0,0,0,0,4.1032,4.1062,4.1323,4.1207,4.124,4.1311,4.138,4.139,4.1435,4.1512,4.1524,4.1455,4.1591,4.1615,4.1743,4.1803,4.1703,4.1713,4.208,4.2086,4.2091,4.2131,0,0,0,0,0,0,4.1022,4.106,4.1113,4.1208,4.1246,4.1433,4.1384,4.1396,4.1454,4.1451,4.1547,4.1559,4.159,4.1727,4.1753,4.1816,4.1721,4.2075,4.2082,4.2089,4.2124,4.2137,4.2148,0,0,0,0,0,4.1009,4.1116,4.1116,4.1147,4.1315,4.1437,4.1458,4.1492,4.1459,4.1512,4.1562,4.1556,4.1792,4.174,4.177,4.1836,4.2071,4.208,4.2089,4.2119,4.2135,4.2148,0,0,0,0,0,0,4.1026,4.1129,4.113,4.1271,4.1345,4.1437,4.1506,4.1508,4.1593,4.1586,4.1624,4.1645,4.1772,4.1817,4.1757,4.1973,4.1927,4.1943,4.194,4.1956,4.1967,4.1954,4.173,0,0,0,0,0,4.1046,4.1138,4.1223,4.1339,4.1377,4.1435,4.1489,4.1509,4.1587,4.1618,4.1676,4.1751,4.1842,4.1901,4.1989,4.2131,4.2151,4.2191,4.2203,4.2212,4.2225,4.2303,4.2321,4.2123,4.2123,4.2123,0,0,4.1089,4.1157,4.1212,4.1345,4.1404,4.1497,4.1461,4.1561,4.163,4.1633,4.1757,4.1802,4.1888,4.2023,4.2085,4.2064,4.2284,4.2224,4.2231,4.2239,4.2314,4.2332,4.2349,4.2129,4.2128,4.2127,0,0,4.1214,4.1275,4.1379,4.1439,4.153,4.1568,4.1593,4.1684,4.1715,4.184,4.1843,4.1925,4.2081,4.2142,4.2193,4.2341,4.2339,4.2368,4.2431,4.2506,4.2521,4.2535,4.2588,4.2606,4.2381,4.2381,4.2381,0,4.1256,4.1397,4.1431,4.1532,4.159,4.1597,4.1701,4.1758,4.1872,4.1912,4.1886,4.2082,4.214,4.2289,4.2325,4.2366,4.2395,4.2358,4.2517,4.2531,4.2545,4.2595,4.2614,4.2384,4.2383,4.2383,4.2383,0,4.1443,4.1541,4.1614,4.1725,4.1791,4.1893,4.1941,4.2003,4.2017,4.2057,4.2183,4.2254,4.2355,4.2392,4.2406,4.2543,4.2527,4.2509,4.2463,4.2566,4.2614,4.2633,4.2388,4.2387,4.2386,4.2385,0,0,4.1585,4.1714,4.174,4.179,4.1891,4.1966,4.2068,4.2168,4.222,4.2299,4.2384,4.2516,4.2499,4.2558,4.2578,4.2644,4.2755,4.2618,4.262,4.2641,4.291,4.2923,4.2944,4.2754,4.2758,4.2761,4.2902,0,4.1721,4.1903,4.1937,4.2095,4.2185,4.2192,4.228,4.2351,4.2391,4.2472,4.2515,4.2608,4.2579,4.2614,4.268,4.2728,4.281,4.2718,4.2833,4.2837,4.2812,4.2969,4.2984,4.3114,4.2921,4.2924,4.2927,0,4.1905,4.1988,4.2156,4.2243,4.2282,4.2361,4.2456,4.2534,4.2613,4.2637,4.2702,4.2715,4.2819,4.2768,4.2912,4.2849,4.2898,4.2928,4.2934,4.2946,4.2888,4.2986,4.3156,4.3175,4.2956,4.2954,4.2952,0,4.1991,4.2146,4.2266,4.2308,4.2414,4.2469,4.2515,4.2591,4.2649,4.2731,4.2768,4.2861,4.2912,4.2982,4.3019,4.2979,4.316,4.3112,4.3182,4.3182,4.3221,4.3218,4.3401,4.3252,4.3252,4.3251,4.3251,0,4.214,4.2242,4.2306,4.238,4.2494,4.253,4.2642,4.2687,4.2754,4.2836,4.2847,4.2923,4.2967,4.305,4.3079,4.3193,4.3216,4.3237,4.3244,4.3237,4.3234,4.327,4.3261,4.3256,4.3255,4.3254,4.3253,0,4.2256,4.2303,4.2434,4.2523,4.2548,4.2628,4.2703,4.2774,4.2813,4.2917,4.2943,4.3004,4.3101,4.3145,4.3265,4.3285,4.3415,4.3415,4.3388,4.3391,4.3458,4.3451,4.3671,4.3701,4.3532,4.3533,4.3535,0,4.2348,4.2427,4.2524,4.258,4.2628,4.2718,4.2777,4.2815,4.2876,4.2972,4.3032,4.3129,4.321,4.3365,4.3419,4.351,4.3513,4.3583,4.3527,4.3516,4.3514,4.3509,4.3516,4.3594,4.3595,4.3597,4.3598,0,4.2506,4.2525,4.261,4.2704,4.2775,4.285,4.2924,4.2969,4.3019,4.3086,4.3186,4.3249,4.3371,4.3468,4.3563,4.3609,4.3612,4.3615,4.3636,4.363,4.3611,4.3622,4.3417,4.361,4.3609,4.3608,4.3607,4.3607,4.2613,4.2683,4.2762,4.2857,4.2916,4.2985,4.3056,4.3104,4.3189,4.3292,4.3309,4.3415,4.3491,4.3619,4.3669,4.3751,4.3734,4.3765,4.3773,4.378,4.3783,4.3598,4.3769,4.3768,4.3768,4.3768,4.3768,0,4.2771,4.2822,4.2909,4.3012,4.3086,4.3083,4.3164,4.3226,4.332,4.3391,4.347,4.3584,4.3678,4.3739,4.3834,4.3888,4.3892,4.3911,4.3908,4.3918,4.3794,4.3766,4.3907,4.3907,4.3907,4.3907,4.3907,4.3907,4.2862,4.298,4.3009,4.3156,4.3206,4.3312,4.3358,4.3421,4.3478,4.3605,4.3684,4.3723,4.379,4.3889,4.3974,4.399,4.4024,4.4045,4.4059,4.3942,4.3927,4.3913,4.3888,4.4052,4.4052,4.4177,4.4178,4.4179]}]]